751  
ASUS43 KLMK 150010  
RWRKY  
KENTUCKY REGIONAL WEATHER ROUNDUP  
NATIONAL WEATHER SERVICE LOUISVILLE KY  
700 PM EST THU DEC 14 2017  
 
NOTE "FAIR" INDICATES FEW OR NO CLOUDS BELOW 12,000 FEET  
WITH NO SIGNIFICANT WEATHER AND/OR S TO VISIBILITY
.  
 
KYZ001>023-026-027-061>063-070>075-150100-  
WESTERN AND SOUTH CENTRAL KENTUCKY  
 
CITY SKY/WX TMP DP RH WIND PRES REMARKS
 
PADUCAH CLOUDY 34 21 59 N6 30.09S WCI 29  
HENDERSON CLOUDY 33 20 58 CALM 30.10S  
OWENSBORO CLOUDY 33 22 63 NW5 30.09 WCI 29  
HOPKINSVILLE CLOUDY 33 21 60 NW5 30.07S WCI 29  
BOWLING GREEN CLOUDY 36 22 56 NW8 30.07R WCI 30  
GLASGOW CLOUDY 34 25 68 CALM 30.05R  

 
 
KYZ024-025-028>034-038-045-046-053-150100-  
NORTH CENTRAL KENTUCKY  
 
CITY SKY/WX TMP DP RH WIND PRES REMARKS
 
LOUISVILLE/SDF CLOUDY 30 18 60 NW6 30.08R WCI 24  
LOUISVILLE/LOU PTCLDY 30 18 60 NW3 30.08R  
FORT KNOX CLOUDY 29 18 63 CALM 30.05R  

 
 
KYZ035>037-039>044-047>052-055>060-089>105-150100-  
NORTHEAST KENTUCKY  
 
CITY SKY/WX TMP DP RH WIND PRES REMARKS
 
LEXINGTON CLOUDY 31 18 58 CALM 30.04R  
COVINGTON CLOUDY 25 17 72 N6 30.07R WCI 18  
FRANKFORT CLOUDY 31 16 54 N5 30.05R WCI 26  

 
 
KYZ054-064>069-076>088-106>120-150100-  
SOUTHEAST KENTUCKY  
 
CITY SKY/WX TMP DP RH WIND PRES REMARKS
 
JACKSON CLOUDY 31 21 66 N3 30.01S  
LONDON CLOUDY 34 21 59 N5 30.02R WCI 30  
SOMERSET CLOUDY 32 21 64 E5 30.05R WCI 27  
MIDDLESBORO PTCLDY 34 25 70 CALM 30.01S  
MONTICELLO NOT AVBL  

 
 
 
 
CLICK HERE TO GO TO PREVIOUS BULLETINS.

The Nexlab KY Page Main Text Page